DW9210 Weather Reports


Display with metric or nautical units.
time (UTC)temp
F
wind
direction
speed
MPH
gust
MPH
rain 1hr
in
rain 24hr
in
rain mn
in
humidity
%
barometer
mb
20260903145503 90 274 2.0 4.0 0.00 0.00 0.00 67 1015.4
20260903145003 90 279 1.0 4.0 0.00 0.00 0.00 69 1015.4
20260903144503 89 274 2.0 4.0 0.00 0.00 0.00 69 1015.3
20260903144003 89 287 2.0 4.0 0.00 0.00 0.00 72 1015.3
20260903143503 88 279 2.0 4.0 0.00 0.00 0.00 71 1015.3
20260903143024 88 258 3.0 5.0 0.00 0.00 0.00 72 1015.3
20260903142503 88 259 3.0 5.0 0.00 0.00 0.00 68 1015.3
20260903142003 87 269 2.0 5.0 0.00 0.00 0.00 69 1015.3
20260903141503 87 269 2.0 4.0 0.00 0.00 0.00 71 1015.3
20260903141003 87 278 2.0 4.0 0.00 0.00 0.00 71 1015.3
20260903140503 86 286 2.0 4.0 0.00 0.00 0.00 73 1015.3
20260903140003 86 280 3.0 6.0 0.00 0.00 0.00 75 1015.4
20260903135503 86 267 3.0 6.0 0.00 0.00 0.00 76 1015.4
20260903135024 85 261 3.0 6.0 0.00 0.00 0.00 75 1015.5
20260903134503 84 259 3.0 6.0 0.00 0.00 0.00 77 1015.5
20260903134003 84 262 2.0 6.0 0.00 0.00 0.00 77 1015.5
20260903133503 84 265 2.0 5.0 0.00 0.00 0.00 79 1015.5
20260903133003 83 254 2.0 4.0 0.00 0.00 0.00 79 1015.6
20260903132503 83 245 2.0 4.0 0.00 0.00 0.00 80 1015.7
20260903132003 82 235 2.0 5.0 0.00 0.00 0.00 80 1015.7
20260903131524 82 233 2.0 5.0 0.00 0.00 0.00 80 1015.8
20260903131003 81 232 1.0 5.0 0.00 0.00 0.00 82 1015.7
20260903130524 81 224 1.0 3.0 0.00 0.00 0.00 83 1015.9
20260903130003 80 217 1.0 3.0 0.00 0.00 0.00 83 1016.0
20260903125503 79 201 0.0 4.0 0.00 0.00 0.00 87 1016.0
20260903125003 78 203 0.0 4.0 0.00 0.00 0.00 90 1016.0
20260903124524 77 180 0.0 1.0 0.00 0.00 0.00 92 1016.0
20260903124003 76 204 0.0 1.0 0.00 0.00 0.00 93 1016.0
20260903123524 75 0 0.0 0.0 0.00 0.00 0.00 94 1016.1
20260903123003 74 0 0.0 0.0 0.00 0.00 0.00 94 1016.1
20260903122503 74 0 0.0 0.0 0.00 0.00 0.00 95 1016.1
20260903122003 73 0 0.0 0.0 0.00 0.00 0.00 95 1016.1
20260903121503 73 0 0.0 0.0 0.00 0.00 0.00 95 1016.1
20260903121003 72 0 0.0 0.0 0.00 0.00 0.00 96 1016.1
20260903120524 72 0 0.0 0.0 0.00 0.00 0.00 96 1016.0
20260903120003 71 0 0.0 0.0 0.00 0.00 0.00 97 1016.0
20260903115503 71 0 0.0 0.0 0.00 0.00 0.00 98 1015.9
20260903115003 71 0 0.0 0.0 0.00 0.00 0.00 98 1015.9
20260903114503 70 0 0.0 0.0 0.00 0.00 0.00 97 1015.9
20260903114024 70 0 0.0 0.0 0.00 0.00 0.00 97 1015.8
20260903113503 69 0 0.0 0.0 0.00 0.00 0.00 97 1015.8
20260903113003 69 0 0.0 0.0 0.00 0.00 0.00 97 1015.7
20260903112503 69 0 0.0 0.0 0.00 0.00 0.00 97 1015.7
20260903112003 69 0 0.0 0.0 0.00 0.00 0.00 97 1015.6
20260903111503 69 0 0.0 0.0 0.00 0.00 0.00 97 1015.6
20260903111003 69 0 0.0 0.0 0.00 0.00 0.00 97 1015.5
20260903110503 69 0 0.0 0.0 0.00 0.00 0.00 97 1015.5
20260903110024 69 0 0.0 0.0 0.00 0.00 0.00 97 1015.4
20260903105503 69 0 0.0 0.0 0.00 0.00 0.00 97 1015.4
20260903105024 69 0 0.0 0.0 0.00 0.00 0.00 97 1015.4
20260903104503 69 0 0.0 0.0 0.00 0.00 0.00 97 1015.4
20260903104003 69 0 0.0 0.0 0.00 0.00 0.00 97 1015.4
20260903103503 69 0 0.0 0.0 0.00 0.00 0.00 97 1015.3
20260903103003 69 0 0.0 0.0 0.00 0.00 0.00 97 1015.4
20260903102503 69 0 0.0 0.0 0.00 0.00 0.00 97 1015.4
20260903102024 69 0 0.0 0.0 0.00 0.00 0.00 97 1015.3
20260903101503 69 0 0.0 0.0 0.00 0.00 0.00 96 1015.4
20260903101003 69 0 0.0 0.0 0.00 0.00 0.00 96 1015.4
20260903100503 69 0 0.0 0.0 0.00 0.00 0.00 96 1015.4
20260903100003 69 0 0.0 0.0 0.00 0.00 0.00 96 1015.3
20260903095503 70 0 0.0 0.0 0.00 0.00 0.00 96 1015.3
20260903095003 70 0 0.0 0.0 0.00 0.00 0.00 97 1015.3
20260903094503 70 0 0.0 0.0 0.00 0.00 0.00 97 1015.3
20260903094003 70 0 0.0 0.0 0.00 0.00 0.00 97 1015.3
20260903093503 70 0 0.0 0.0 0.00 0.00 0.00 97 1015.3
20260903093003 70 0 0.0 0.0 0.00 0.00 0.00 97 1015.3
20260903092503 70 0 0.0 0.0 0.00 0.00 0.00 97 1015.3
20260903092003 70 0 0.0 0.0 0.00 0.00 0.00 96 1015.3
20260903091503 70 0 0.0 0.0 0.00 0.00 0.00 96 1015.2
20260903091003 70 0 0.0 0.0 0.00 0.00 0.00 96 1015.1
20260903090503 70 0 0.0 0.0 0.00 0.00 0.00 96 1015.1
20260903090024 70 0 0.0 0.0 0.00 0.00 0.00 96 1015.1
20260903085503 70 0 0.0 0.0 0.00 0.00 0.00 96 1015.1
20260903085003 70 0 0.0 0.0 0.00 0.00 0.00 96 1015.0
20260903084503 70 0 0.0 0.0 0.00 0.00 0.00 96 1015.1
20260903084004 70 0 0.0 0.0 0.00 0.00 0.00 96 1015.0
20260903083524 70 0 0.0 0.0 0.00 0.00 0.00 96 1015.0
20260903083003 70 0 0.0 0.0 0.00 0.00 0.00 96 1015.0
20260903082503 70 0 0.0 0.0 0.00 0.00 0.00 96 1015.0
20260903082003 70 0 0.0 0.0 0.00 0.00 0.00 96 1015.0
20260903081503 70 0 0.0 0.0 0.00 0.00 0.00 96 1015.0
20260903081024 70 0 0.0 0.0 0.00 0.00 0.00 96 1015.0
20260903080503 70 0 0.0 0.0 0.00 0.00 0.00 96 1014.9
20260903080003 70 0 0.0 0.0 0.00 0.00 0.00 96 1015.0
20260903075503 70 0 0.0 0.0 0.00 0.00 0.00 96 1014.9
20260903075024 70 0 0.0 0.0 0.00 0.00 0.00 96 1014.9
20260903074503 70 0 0.0 0.0 0.00 0.00 0.00 96 1014.9
20260903074003 71 0 0.0 0.0 0.00 0.00 0.00 96 1014.9
20260903073503 71 0 0.0 0.0 0.00 0.00 0.00 96 1014.9
20260903073003 71 0 0.0 0.0 0.00 0.00 0.00 96 1014.9
20260903072503 71 0 0.0 0.0 0.00 0.00 0.00 96 1014.8
20260903072003 71 0 0.0 0.0 0.00 0.00 0.00 96 1014.8
20260903071503 71 0 0.0 0.0 0.00 0.00 0.00 95 1014.8
20260903071003 71 0 0.0 0.0 0.00 0.00 0.00 96 1014.8
20260903070503 71 0 0.0 0.0 0.00 0.00 0.00 96 1014.7
20260903070003 71 0 0.0 0.0 0.00 0.00 0.00 96 1014.7
20260903065524 71 0 0.0 0.0 0.00 0.00 0.00 96 1014.7
20260903065003 71 0 0.0 0.0 0.00 0.00 0.00 96 1014.6
20260903064503 71 0 0.0 0.0 0.00 0.00 0.00 96 1014.7
20260903064003 71 0 0.0 0.0 0.00 0.00 0.00 95 1014.6
20260903063524 71 0 0.0 0.0 0.00 0.00 0.00 95 1014.6
20260903063003 71 0 0.0 0.0 0.00 0.00 0.00 96 1014.6
20260903062524 71 0 0.0 0.0 0.00 0.00 0.00 95 1014.5
20260903062003 71 0 0.0 0.0 0.00 0.00 0.00 95 1014.6
20260903061503 72 0 0.0 0.0 0.00 0.00 0.00 95 1014.6
20260903061003 72 0 0.0 0.0 0.00 0.00 0.00 96 1014.6
20260903060503 72 0 0.0 0.0 0.00 0.00 0.00 95 1014.7
20260903060003 72 0 0.0 0.0 0.00 0.00 0.00 95 1014.8
20260903055503 72 0 0.0 0.0 0.00 0.00 0.00 95 1014.8
20260903055003 72 0 0.0 0.0 0.00 0.00 0.00 95 1014.8
20260903054503 72 0 0.0 0.0 0.00 0.00 0.00 95 1014.8
20260903054003 72 0 0.0 0.0 0.00 0.00 0.00 95 1014.8
20260903053503 72 0 0.0 0.0 0.00 0.00 0.00 95 1014.8
20260903053024 72 0 0.0 0.0 0.00 0.00 0.00 95 1014.8
20260903052503 72 0 0.0 0.0 0.00 0.00 0.00 95 1014.8
20260903052003 72 0 0.0 0.0 0.00 0.00 0.00 95 1014.8
20260903051503 72 0 0.0 0.0 0.00 0.00 0.00 95 1014.8
20260903051024 72 0 0.0 0.0 0.00 0.00 0.00 95 1014.7
20260903050503 72 0 0.0 0.0 0.00 0.00 0.00 95 1014.7
20260903050003 72 0 0.0 0.0 0.00 0.00 0.00 95 1014.7
20260903045503 72 0 0.0 0.0 0.00 0.00 0.00 95 1014.7
20260903045003 72 0 0.0 0.0 0.00 0.00 0.00 95 1014.6
20260903044524 73 0 0.0 0.0 0.00 0.00 0.00 95 1014.5
20260903044003 73 0 0.0 0.0 0.00 0.00 0.00 95 1014.5
20260903043503 73 0 0.0 0.0 0.00 0.00 0.00 95 1014.6
20260903043003 73 0 0.0 0.0 0.00 0.00 0.00 95 1014.6
20260903042503 73 0 0.0 0.0 0.00 0.00 0.00 95 1014.6
20260903042003 73 0 0.0 0.0 0.00 0.00 0.00 95 1014.6
20260903041503 73 0 0.0 0.0 0.00 0.00 0.00 94 1014.7
20260903041024 73 0 0.0 0.0 0.00 0.00 0.00 94 1014.7
20260903040503 73 0 0.0 0.0 0.00 0.00 0.00 94 1014.6
20260903040003 73 0 0.0 0.0 0.00 0.00 0.00 94 1014.6
20260903035503 73 0 0.0 0.0 0.00 0.00 0.00 94 1014.5
20260903035003 73 0 0.0 0.0 0.00 0.00 0.00 94 1014.6
20260903034503 73 0 0.0 0.0 0.00 0.00 0.00 94 1014.5
20260903034003 73 0 0.0 0.0 0.00 0.00 0.00 94 1014.5
20260903033503 74 0 0.0 0.0 0.00 0.00 0.00 94 1014.5
20260903033003 74 0 0.0 0.0 0.00 0.00 0.00 93 1014.6
20260903032524 74 262 0.0 1.0 0.00 0.00 0.00 94 1014.6
20260903032003 74 262 0.0 1.0 0.00 0.00 0.00 94 1014.7
20260903031503 74 0 0.0 0.0 0.00 0.00 0.00 93 1014.7
20260903031003 74 0 0.0 0.0 0.00 0.00 0.00 93 1014.7
20260903030503 74 0 0.0 0.0 0.00 0.00 0.00 93 1014.7
20260903030003 74 0 0.0 0.0 0.00 0.00 0.00 93 1014.7
20260903025503 74 0 0.0 0.0 0.00 0.00 0.00 93 1014.7
20260903025003 74 0 0.0 0.0 0.00 0.00 0.00 92 1014.8
20260903024503 75 0 0.0 0.0 0.00 0.00 0.00 93 1014.8
20260903024003 75 0 0.0 0.0 0.00 0.00 0.00 92 1014.7
20260903023503 75 0 0.0 0.0 0.00 0.00 0.00 92 1014.7
20260903023003 75 0 0.0 0.0 0.00 0.00 0.00 92 1014.8
20260903022524 75 0 0.0 0.0 0.00 0.00 0.00 92 1014.8
20260903022003 75 0 0.0 0.0 0.00 0.00 0.00 91 1014.7
20260903021503 76 0 0.0 0.0 0.00 0.00 0.00 91 1014.8
20260903021003 76 0 0.0 0.0 0.00 0.00 0.00 91 1014.8
20260903020503 76 0 0.0 0.0 0.00 0.00 0.00 90 1014.8
20260903020003 76 0 0.0 0.0 0.00 0.00 0.00 90 1014.7
20260903015503 76 0 0.0 0.0 0.00 0.00 0.00 89 1014.8
20260903015003 76 0 0.0 0.0 0.00 0.00 0.00 89 1014.8
20260903014503 77 0 0.0 0.0 0.00 0.00 0.00 88 1014.8
20260903014003 77 0 0.0 0.0 0.00 0.00 0.00 89 1014.7
20260903013503 77 0 0.0 0.0 0.00 0.00 0.00 88 1014.7
20260903013003 77 0 0.0 0.0 0.00 0.00 0.00 88 1014.7
20260903012503 78 0 0.0 0.0 0.00 0.00 0.00 87 1014.7
20260903012003 78 0 0.0 0.0 0.00 0.00 0.00 86 1014.6
20260903011503 78 0 0.0 0.0 0.00 0.00 0.00 86 1014.6
20260903011024 79 0 0.0 0.0 0.00 0.00 0.00 85 1014.6
20260903010503 79 0 0.0 0.0 0.00 0.00 0.00 84 1014.5
20260903010003 79 264 0.0 1.0 0.00 0.00 0.00 84 1014.4
20260903005503 80 264 0.0 1.0 0.00 0.00 0.00 81 1014.5
20260903005003 80 264 0.0 1.0 0.00 0.00 0.00 80 1014.4
20260903004503 80 264 0.0 1.0 0.00 0.00 0.00 79 1014.4
20260903004003 81 0 0.0 0.0 0.00 0.00 0.00 78 1014.4
20260903003503 82 0 0.0 0.0 0.00 0.00 0.00 78 1014.3
20260903003003 82 0 0.0 0.0 0.00 0.00 0.00 76 1014.3
20260903002503 83 0 0.0 0.0 0.00 0.00 0.00 76 1014.4
20260903002003 83 0 0.0 0.0 0.00 0.00 0.00 74 1014.3
20260903001503 84 0 0.0 0.0 0.00 0.00 0.00 73 1014.3
20260903001003 84 264 0.0 1.0 0.00 0.00 0.00 73 1014.3
20260903000503 85 264 0.0 1.0 0.00 0.00 0.00 72 1014.3
20260903000003 86 264 0.0 1.0 0.00 0.00 0.00 72 1014.3
20260902235503 86 264 0.0 1.0 0.00 0.00 0.00 70 1014.3
20260902235024 87 264 0.0 1.0 0.00 0.00 0.00 71 1014.3
20260902234503 88 263 0.0 1.0 0.00 0.00 0.00 69 1014.3
20260902234003 88 246 0.0 2.0 0.00 0.00 0.00 66 1014.4
20260902233503 89 248 0.0 2.0 0.00 0.00 0.00 66 1014.3
20260902233003 90 256 0.0 1.0 0.00 0.00 0.00 63 1014.4
20260902232503 91 257 0.0 2.0 0.00 0.00 0.00 60 1014.4
20260902232024 92 257 1.0 2.0 0.00 0.00 0.00 57 1014.4
20260902231524 92 253 1.0 2.0 0.00 0.00 0.00 55 1014.4
20260902231024 93 241 1.0 2.0 0.00 0.00 0.00 54 1014.4
20260902230503 94 243 1.0 3.0 0.00 0.00 0.00 55 1014.4
20260902230024 94 252 1.0 3.0 0.00 0.00 0.00 52 1014.4
20260902225503 94 254 2.0 4.0 0.00 0.00 0.00 51 1014.4
20260902225024 95 249 2.0 5.0 0.00 0.00 0.00 50 1014.4
20260902224503 95 242 2.0 5.0 0.00 0.00 0.00 50 1014.4
20260902224003 95 240 2.0 4.0 0.00 0.00 0.00 50 1014.4
20260902223503 95 242 2.0 4.0 0.00 0.00 0.00 51 1014.4
20260902223003 95 247 2.0 5.0 0.00 0.00 0.00 52 1014.4
20260902222503 95 257 2.0 5.0 0.00 0.00 0.00 49 1014.4
20260902222003 95 261 3.0 8.0 0.00 0.00 0.00 54 1014.4
20260902221503 95 262 3.0 8.0 0.00 0.00 0.00 53 1014.5
20260902221003 96 252 2.0 4.0 0.00 0.00 0.00 51 1014.5
20260902220503 96 241 2.0 6.0 0.00 0.00 0.00 53 1014.6
20260902220003 96 243 2.0 6.0 0.00 0.00 0.00 53 1014.7
20260902215503 96 243 2.0 6.0 0.00 0.00 0.00 49 1014.6
20260902215003 96 256 2.0 6.0 0.00 0.00 0.00 51 1014.7
20260902214503 96 260 3.0 6.0 0.00 0.00 0.00 53 1014.7
20260902214003 96 256 2.0 5.0 0.00 0.00 0.00 54 1014.7
20260902213503 96 267 2.0 5.0 0.00 0.00 0.00 50 1014.7
20260902213003 96 277 2.0 6.0 0.00 0.00 0.00 53 1014.7
20260902212503 96 270 3.0 8.0 0.00 0.00 0.00 51 1014.7
20260902212003 97 268 3.0 8.0 0.00 0.00 0.00 52 1014.7
20260902211503 96 262 3.0 8.0 0.00 0.00 0.00 48 1014.8
20260902211024 96 247 2.0 6.0 0.00 0.00 0.00 48 1014.7
20260902210503 96 263 3.0 7.0 0.00 0.00 0.00 47 1014.8
20260902210024 96 262 3.0 7.0 0.00 0.00 0.00 51 1014.8
20260902205503 96 249 3.0 7.0 0.00 0.00 0.00 49 1014.8
20260902205003 96 245 3.0 7.0 0.00 0.00 0.00 49 1014.8
20260902204503 96 251 2.0 5.0 0.00 0.00 0.00 52 1014.7
20260902204003 95 264 3.0 8.0 0.00 0.00 0.00 53 1014.8
20260902203524 96 256 3.0 8.0 0.00 0.00 0.00 49 1014.9
20260902203024 96 246 2.0 7.0 0.00 0.00 0.00 49 1015.0
20260902202503 96 239 3.0 6.0 0.00 0.00 0.00 53 1014.9
20260902202003 95 239 3.0 7.0 0.00 0.00 0.00 50 1015.0
20260902201503 96 253 3.0 7.0 0.00 0.00 0.00 50 1015.0
20260902201003 96 266 2.0 5.0 0.00 0.00 0.00 53 1015.1
20260902200503 96 247 2.0 10.0 0.00 0.00 0.00 49 1015.1
20260902200003 96 219 2.0 10.0 0.00 0.00 0.00 50 1015.2
20260902195503 96 216 2.0 4.0 0.00 0.00 0.00 51 1015.2
20260902195003 96 245 2.0 7.0 0.00 0.00 0.00 54 1015.2
20260902194503 96 242 2.0 7.0 0.00 0.00 0.00 51 1015.4
20260902194003 96 262 3.0 7.0 0.00 0.00 0.00 50 1015.4
20260902193503 95 265 4.0 8.0 0.00 0.00 0.00 52 1015.5
20260902193003 95 253 3.0 8.0 0.00 0.00 0.00 51 1015.6
20260902192503 95 213 2.0 7.0 0.00 0.00 0.00 55 1015.7
20260902192004 95 209 3.0 7.0 0.00 0.00 0.00 51 1015.7
20260902191503 96 254 2.0 7.0 0.00 0.00 0.00 53 1015.7
20260902191003 96 267 4.0 8.0 0.00 0.00 0.00 51 1015.8
20260902190503 95 253 4.0 8.0 0.00 0.00 0.00 49 1015.9
20260902190003 95 241 2.0 7.0 0.00 0.00 0.00 57 1015.9
20260902185503 95 254 2.0 5.0 0.00 0.00 0.00 52 1015.9
20260902185003 95 270 2.0 5.0 0.00 0.00 0.00 53 1015.9
20260902184503 95 254 3.0 7.0 0.00 0.00 0.00 52 1015.9
20260902184003 96 243 3.0 7.0 0.00 0.00 0.00 51 1015.9
20260902183503 95 246 3.0 6.0 0.00 0.00 0.00 54 1015.9
20260902183003 95 238 4.0 8.0 0.00 0.00 0.00 53 1015.8
20260902182503 94 222 3.0 8.0 0.00 0.00 0.00 56 1015.8
20260902182003 94 219 2.0 8.0 0.00 0.00 0.00 57 1015.9
20260902181524 93 255 1.0 4.0 0.00 0.00 0.00 60 1016.0
20260902181003 94 258 2.0 6.0 0.00 0.00 0.00 57 1016.0
20260902180503 94 261 3.0 7.0 0.00 0.00 0.00 55 1016.0
20260902180024 95 258 3.0 7.0 0.00 0.00 0.00 56 1016.1
20260902175503 94 238 3.0 8.0 0.00 0.00 0.00 58 1016.2
20260902175003 94 233 4.0 11.0 0.00 0.00 0.00 54 1016.2
20260902174503 94 244 4.0 11.0 0.00 0.00 0.00 53 1016.3
20260902174003 94 262 3.0 9.0 0.00 0.00 0.00 55 1016.3
20260902173503 94 274 3.0 7.0 0.00 0.00 0.00 62 1016.4
20260902173024 94 270 3.0 8.0 0.00 0.00 0.00 55 1016.5
20260902172503 94 273 3.0 8.0 0.00 0.00 0.00 63 1016.5
20260902172004 94 280 3.0 7.0 0.00 0.00 0.00 61 1016.6
20260902171503 93 279 4.0 8.0 0.00 0.00 0.00 62 1016.7
20260902171024 93 278 4.0 8.0 0.00 0.00 0.00 57 1016.7
20260902170503 93 277 3.0 7.0 0.00 0.00 0.00 63 1016.8
20260902170003 93 273 3.0 7.0 0.00 0.00 0.00 59 1016.8
20260902165503 93 261 3.0 9.0 0.00 0.00 0.00 61 1017.0
20260902165024 93 258 3.0 9.0 0.00 0.00 0.00 59 1017.0
20260902164503 93 274 3.0 7.0 0.00 0.00 0.00 62 1017.1
20260902164003 92 269 3.0 5.0 0.00 0.00 0.00 66 1017.1
20260902163524 92 269 3.0 5.0 0.00 0.00 0.00 63 1017.1
20260902163003 92 268 2.0 5.0 0.00 0.00 0.00 66 1017.3
20260902162503 92 255 3.0 6.0 0.00 0.00 0.00 61 1017.3
20260902162003 92 262 3.0 6.0 0.00 0.00 0.00 61 1017.3
20260902161503 92 260 3.0 6.0 0.00 0.00 0.00 64 1017.3
20260902161003 92 258 3.0 7.0 0.00 0.00 0.00 62 1017.3
20260902160524 91 276 3.0 7.0 0.00 0.00 0.00 61 1017.3
20260902160024 91 292 2.0 4.0 0.00 0.00 0.00 63 1017.2
20260902155503 91 275 2.0 5.0 0.00 0.00 0.00 65 1017.2
20260902155003 91 262 3.0 6.0 0.00 0.00 0.00 63 1017.4
20260902154503 91 265 2.0 7.0 0.00 0.00 0.00 62 1017.4
20260902154003 90 264 2.0 7.0 0.00 0.00 0.00 65 1017.4
20260902153503 90 280 2.0 5.0 0.00 0.00 0.00 67 1017.4
20260902153003 90 293 2.0 5.0 0.00 0.00 0.00 68 1017.5
20260902152503 90 281 2.0 5.0 0.00 0.00 0.00 68 1017.5
20260902152003 90 287 2.0 5.0 0.00 0.00 0.00 68 1017.4
20260902151503 89 283 3.0 5.0 0.00 0.00 0.00 68 1017.4
20260902151003 89 294 2.0 5.0 0.00 0.00 0.00 71 1017.4
20260902150503 89 296 2.0 5.0 0.00 0.00 0.00 70 1017.3
20260902150003 88 283 2.0 5.0 0.00 0.00 0.00 71 1017.3